Showing default

OPS 9845 (DMSP 5D-2 F6), 13736

Orbit data source: Space-Track

OPS 9845 (DMSP 5D-2 F6), 13736 is a payload satellite owned by USAF SD (US) in SSO that was launched on Tue, 21 Dec 1982 UTC via an ATLAS E launch vehicle from the Air Force Western Test Range (AFWTR). Payload-class satellites include a variety of spacecraft equipped with specific instruments for various scientific and technological missions. These include communications satellites like Starlink; space stations such as the ISS; scientific satellites like the Hubble; Earth observation satellites from companies like Planet Labs, Umbra, and HawkEye 360; GPS; miniature CubeSats for education and research; and military/defense satellites.

Loading next visibility...
Identifier
13736, 1982-118A
Orbit
SSO
Country
Flag of USUS
Related business
Manufacturer
RCA/East Windsor
Mission
Non-operational spacecraft
Bus & Motor
BLOCK 5D, STAR 37S
Mass
1,474 kg wet, 760 kg dry
Launch date (UTC)
1982-12-21 (44 years ago)
Launch vehicle
ATLAS E
Launch site
Air Force Western Test Range (AFWTR)
Object type
Payload
Rocket body
Debris
Shape & HBR
Unknown
Radar Cross Section
Large (>1 m²)

Expand to show TLE details & history
Last TLE update: 2 days ago

TLE from 2 days ago
0 OPS 9845 (DMSP 5D-2 F6)
1 13736U 82118A   26171.43549693  .00000108  00000-0  58415-4 0  9996
2 13736  98.5930 359.0206 0006752 323.6753  36.3971 14.30521704265470
Epoch: 2026-06-20T10:27Z
TLE epoch observation values (Epoch: 2026-06-20T10:27:06.934Z)
Latitude
-0°
Longitude
-66.40845°
Altitude
789.025 km
Speed
7.461 km/s
True Right ascension
23h 56m 04s
True Declination
0° 00' 00"
Sunlit
Object was in daylight at epoch
Visualization orbit readout
Latitude
Unknown
Longitude
Unknown
Altitude
Unknown
Speed
Unknown
Apparent Right ascension
Unknown
Apparent Declination
Unknown
Sunlit
N/A
Visualization observer readout
Local Sidereal Time
02:18:53
Azimuth
Unknown
Elevation
Unknown
Doppler factor
Unknown
Orbital elements
Apogee altitude
791.964 km
Perigee altitude
782.288 km
Semi-major axis
7,165.263 km
Eccentricity
0.00068
Inclination
98.593°
RAAN
359.0206°
Arg. of periapsis
323.6753°
True anomaly
36.44304°
Mean anomaly
36.3971°
Eccentric anomaly
36.42007°
Mean motion
3.57845 °/min
Orbital period
100.6 mins
BSTAR
0.000058415
Loading maneuver chart data...
Computing Atmospheric mass density...
Loading historical data...
Loading historical data...
Loading historical data...
Loading historical data...
Loading historical data...
Loading historical data...
Loading historical data...

Documentation

Showing up to 5 results
|